#timestamp,LO_Frequency,Hit,StdDev 
1620528115.6,286047031.8,P
1620528135.5,286047032.4,P
1620528155.3,286047033.1,P
1620528175.1,286047030.9,Y
1620528195.9,286046999.3,P
1620528215.7,286046998.1,N
1620528235.5,286046999.4,N
1620528255.4,286047000.6,N
1620528275.2,286047000.9,N
1620528295.1,286046999.9,N
1620528296.0,286046999.9,N
1620528315.8,286047000.0,N
1620528335.6,286047001.2,N
1620528355.5,286047000.5,N
1620528375.3,286046999.9,N
1620528395.1,286047001.2,N
1620528415.9,286046998.7,N
1620528435.7,286047001.2,N
1620528455.6,286047000.9,N
1620528475.4,286047002.6,N
1620528495.2,286047003.6,N
1620528515.1,286047001.3,N
1620528516.0,286047001.3,N
1620528535.8,286047004.7,N
1620528555.6,286047007.3,N
1620528575.5,286047007.3,N
1620528595.3,286047011.9,N
1620528615.2,286047012.2,N
1620528635.9,286047011.1,N
1620528655.7,286047011.5,N
1620528675.6,286047009.5,N
1620528695.4,286047011.8,N
1620528715.3,286047012.0,N
1620528735.1,286047010.1,N
1620528736.0,286047010.1,N
1620528755.8,286047009.5,N
1620528775.7,286047009.6,N
1620528795.5,286047014.0,N
1620528815.3,286047010.9,N
1620528835.2,286047016.0,Y
1620528855.0,286047011.7,P
1620528855.9,286047011.7,P
1620528875.8,286047012.1,P
1620528895.6,286047010.5,Y
1620528915.4,286046997.6,P
1620528935.3,286046995.4,N
1620528955.1,286046997.5,N
1620528975.9,286046995.8,N
1620528995.7,286046993.3,N
1620529015.5,286046995.8,N
1620529035.4,286046995.1,N
1620529055.2,286046997.8,N
1620529075.0,286046995.6,N
1620529075.9,286046995.6,N
1620529095.8,286046997.1,N
1620529115.6,286046997.8,N
1620529135.4,286046995.7,N
1620529155.3,286046996.2,N
1620529175.1,286046996.3,N
1620529195.9,286046993.3,N
